Sydney, New South Wales

2:07 PM AEDT on February 06, 2016 (GMT +1100)
Sydney

Weather History for 94767 - July, 2013

Change the Weather History Date:

Saturday, July 20, 2013

  Actual Average Record
Temperature  
Mean Temperature 62 °F -  
Max Temperature 70 °F 64 °F - ()
Min Temperature 53 °F 45 °F - ()
Degree Days  
Heating Degree Days 4    
Growing Degree Days 12 (Base 50)    
Moisture  
Dew Point 41 °F    
Average Humidity 47    
Maximum Humidity 82    
Minimum Humidity 13    
Precipitation  
Precipitation 0.01 in 0.10 in - ()
Sea Level Pressure  
Sea Level Pressure 29.77 in    
Wind  
Wind Speed 12 mph ()    
Max Wind Speed 25 mph    
Max Gust Speed 34 mph    
Visibility 8.6 miles    
Events Rain    
T = Trace of Precipitation, MM = Missing Value Source: Averaged Metar Reports

Daily Weather History Graph

Daily Weather History Graph

Search for Another Location

Airport or City:

Trip Planner

Search our weather history database for the weather conditions in past years. The results will help you decide how hot, cold, wet, or windy it might be!

Date:

Astronomy

Jul. 20, 2013 Rise Set
Actual Time 6:56 AM AEST 5:07 PM AEST
Civil Twilight 6:29 AM AEST 5:34 PM AEST
Nautical Twilight 5:58 AM AEST 6:05 PM AEST
Astronomical Twilight 5:28 AM AEST 6:35 PM AEST
Moon 2:29 PM AEST (7/20) 3:55 AM AEST (7/20)
Length of Visible Light 11h 05m
Length of Day
10h 11m
Waxing Gibbous, 89% of the Moon is Illuminated
Jul 20
Waxing Gibbous
Jul 23
Full
Jul 30
Last Quarter
Aug 7
New
Aug 14
First Quarter

Hourly Weather History & Observations

Time (AEST) Temp. Dew Point Humidity Pressure Visibility Wind Dir Wind Speed Gust Speed Precip Events Conditions
12:00 AM 63 °F 53 °F 63% 29.86 in 22 mi North 10.4 mph - -   Partly Cloudy
12:00 AM 62.6 °F 53.6 °F 72% 29.83 in - North 10.4 mph - N/A   Clear
12:30 AM 62.6 °F 53.6 °F 72% 29.83 in - North 9.2 mph - N/A   Clear
1:00 AM 61 °F 53 °F 69% 29.84 in - North 10.4 mph - -  
1:00 AM 60.8 °F 53.6 °F 77% 29.83 in - North 10.4 mph - N/A   Clear
1:30 AM 60.8 °F 53.6 °F 77% 29.80 in - NNW 10.4 mph - N/A   Clear
2:00 AM 60.8 °F 53.6 °F 77% 29.80 in - NNW 8.1 mph - N/A   Clear
2:30 AM 60.8 °F 51.8 °F 72% 29.77 in - NW 10.4 mph - N/A   Clear
3:00 AM 61 °F 50 °F 58% 29.79 in 22 mi NNW 12.7 mph - -   Partly Cloudy
3:00 AM 60.8 °F 50.0 °F 68% 29.77 in - NNW 12.7 mph - N/A   Clear
3:30 AM 59.0 °F 50.0 °F 72% 29.77 in - NNW 9.2 mph - N/A   Clear
4:00 AM 58 °F 50 °F 68% 29.79 in - North 9.2 mph - -  
4:00 AM 59.0 °F 50.0 °F 72% 29.77 in - North 9.2 mph - N/A   Clear
4:30 AM 57.2 °F 50.0 °F 77% 29.77 in - North 9.2 mph - N/A   Clear
5:00 AM 55.4 °F 50.0 °F 82% 29.77 in - North 10.4 mph - N/A   Clear
5:30 AM 55.4 °F 50.0 °F 82% 29.77 in - North 9.2 mph - N/A   Clear
6:00 AM 56 °F 50 °F 75% 29.80 in 19 mi North 10.4 mph - -   Partly Cloudy
6:00 AM 55.4 °F 50.0 °F 82% 29.80 in - North 10.4 mph - N/A   Clear
6:30 AM 59.0 °F 50.0 °F 72% 29.80 in 6.2 mi North 11.5 mph - N/A   Partly Cloudy
7:00 AM 59 °F 49 °F 62% 29.81 in - North 10.4 mph - -  
7:00 AM 59.0 °F 50.0 °F 72% 29.80 in 6.2 mi North 10.4 mph - N/A   Partly Cloudy
7:30 AM 59.0 °F 48.2 °F 67% 29.80 in 6.2 mi North 9.2 mph - N/A   Partly Cloudy
8:00 AM 62.6 °F 48.2 °F 59% 29.80 in 6.2 mi NNE 9.2 mph - N/A   Partly Cloudy
8:30 AM 62.6 °F 48.2 °F 59% 29.80 in 6.2 mi North 11.5 mph - N/A   Partly Cloudy
9:00 AM 64 °F 47 °F 44% 29.81 in 19 mi North 11.5 mph - -   Partly Cloudy
9:00 AM 64.4 °F 48.2 °F 56% 29.80 in 6.2 mi North 11.5 mph - N/A   Partly Cloudy
9:30 AM 66.2 °F 46.4 °F 49% 29.77 in - NNW 11.5 mph - N/A   Clear
10:00 AM 66 °F 46 °F 37% 29.79 in - North 17.3 mph - -  
10:00 AM 66.2 °F 46.4 °F 49% 29.77 in - North 17.3 mph - N/A   Clear
10:30 AM 66.2 °F 44.6 °F 46% 29.77 in - North 17.3 mph - N/A   Clear
11:00 AM 68.0 °F 44.6 °F 43% 29.74 in - North 16.1 mph - N/A   Clear
11:30 AM 69.8 °F 44.6 °F 40% 29.74 in - NNW 15.0 mph - N/A   Clear
12:00 PM 70 °F 43 °F 27% 29.74 in 19 mi NNW 15.0 mph - -   Scattered Clouds
12:00 PM 69.8 °F 42.8 °F 38% 29.71 in 6.2 mi NNW 15.0 mph - N/A   Partly Cloudy
12:30 PM 68.0 °F 41.0 °F 37% 29.71 in 6.2 mi NW 17.3 mph - N/A Rain Light Rain Showers
12:42 PM 64.4 °F 44.6 °F 49% 29.74 in 3.1 mi WNW 18.4 mph 29.9 mph N/A Rain Rain Showers
1:00 PM 66 °F 49 °F 45% 29.73 in - NW 17.3 mph - -  
1:00 PM 66.2 °F 50.0 °F 56% 29.71 in 6.2 mi NW 17.3 mph - N/A   Scattered Clouds
1:30 PM 68.0 °F 39.2 °F 35% 29.68 in 6.2 mi NNW 17.3 mph - N/A   Partly Cloudy
1:47 PM 69.8 °F 39.2 °F 33% 29.68 in 6.2 mi NNW 18.4 mph 33.4 mph N/A   Partly Cloudy
2:00 PM 68.0 °F 39.2 °F 35% 29.68 in - NNW 19.6 mph - N/A   Clear
2:30 PM 68.0 °F 39.2 °F 35% 29.65 in - North 19.6 mph - N/A   Clear
3:00 PM 67 °F 35 °F 19% 29.68 in 25 mi NW 17.3 mph - -   Partly Cloudy
3:00 PM 68.0 °F 35.6 °F 30% 29.68 in - NW 17.3 mph - N/A   Clear
3:30 PM 68.0 °F 28.4 °F 23% 29.68 in - NW 20.7 mph - N/A   Clear
3:37 PM 68.0 °F 26.6 °F 21% 29.68 in - NW 23.0 mph 34.5 mph N/A   Clear
4:00 PM 66 °F 27 °F 13% 29.70 in - NW 21.9 mph - -  
4:00 PM 66.2 °F 26.6 °F 23% 29.68 in - NW 21.9 mph 33.4 mph N/A   Clear
4:30 PM 66.2 °F 32.0 °F 28% 29.68 in - WNW 18.4 mph - N/A   Clear
5:00 PM 64.4 °F 28.4 °F 26% 29.71 in - WNW 19.6 mph - N/A   Clear
5:09 PM 64.4 °F 32.0 °F 30% 29.71 in - NW 20.7 mph 33.4 mph N/A   Clear
5:30 PM 64.4 °F 28.4 °F 26% 29.71 in - WNW 19.6 mph - N/A   Clear
6:00 PM 62 °F 31 °F 20% 29.75 in 25 mi WNW 16.1 mph - -   Partly Cloudy
6:00 PM 62.6 °F 32.0 °F 32% 29.74 in - WNW 16.1 mph - N/A   Clear
6:33 PM 60.8 °F 28.4 °F 29% 29.77 in - WNW 19.6 mph 32.2 mph N/A   Clear
7:00 PM 61 °F 27 °F 16% 29.79 in - WNW 25.3 mph - -  
7:00 PM 60.8 °F 26.6 °F 27% 29.77 in - WNW 25.3 mph - N/A   Clear
7:30 PM 59.0 °F 28.4 °F 31% 29.80 in - WNW 16.1 mph - N/A   Clear
8:00 PM 59.0 °F 30.2 °F 34% 29.83 in - West 8.1 mph - N/A   Clear
8:30 PM 57.2 °F 32.0 °F 38% 29.83 in - WNW 13.8 mph - N/A   Clear
9:00 PM 57 °F 32 °F 26% 29.86 in 25 mi WNW 13.8 mph - -   Partly Cloudy
9:00 PM 57.2 °F 32.0 °F 38% 29.86 in - WNW 13.8 mph - N/A   Clear
9:30 PM 57.2 °F 32.0 °F 38% 29.86 in - WNW 12.7 mph - N/A   Clear
10:00 PM 55 °F 32 °F 29% 29.88 in - WNW 9.2 mph - -  
10:00 PM 55.4 °F 32.0 °F 41% 29.86 in - WNW 9.2 mph - N/A   Clear
10:30 PM 55.4 °F 30.2 °F 38% 29.86 in - WNW 12.7 mph - N/A   Clear
11:00 PM 53.6 °F 28.4 °F 38% 29.89 in - WNW 16.1 mph - N/A   Clear
11:30 PM 53.6 °F 28.4 °F 38% 29.89 in - West 12.7 mph - N/A   Clear